Content
SEND FEEDBACK

Daily
Averages
Monthly
Summary
Philippines

BAGUMBAYAN, PHILIPPINES


Home > Asia > Philippines
Elevation: 49 feet     Latitude: 14 31N     Longitude: 121 00E

WEATHER
 
SELECT A DAY
Number of Records: 176,357;   Date Range: 7/1/96 - 9/30/14
 
SHARE

PRINT THIS DATA

[ ← Previous Day ]
WEATHER ALMANAC - MARCH 26, 2013
[ Next Day → ]
[ °C ]   °F
Weather ElementAverageHighLow
Temperature85.6 °F93.2 °F (2:00 pm)80.6 °F (3:00 am)
Dewpoint71.3 °F73.4 °F (5:00 am)66.2 °F (3:00 pm)
Humidity61.1 %79 % (5:00 am)34 % (2:00 pm)
Barometer29.82 in29.87 in (11:00 am)29.77 in (2:00 pm)
Wind Speed9.2 mph12.7 mph (12:00 pm)
Wind Gust25.3 mph (11:00 am)
Weather ElementAverage
Visibility6.1 mi
Wind DirectionESE (114.2 °)

Weather ElementTotal
Precipitation---
Cooling Degree Days21.9 (Base 65)
Growing Degree Days36.9 (Base 50)
Averaged from 31 records on March 26, 2013
WEATHER CONDITIONS BREAKOUT
WIND DIRECTION BREAKOUT
WEATHER BY HOUR - MARCH 26, 2013
[ °C ]   °F
Local TimeTemperatureDewpointHumidityBarometerVisibilityWind DirectionWind SpeedGust SpeedPrecipitationEventsConditions
1:00 AM82.4 °F71.6 °F70 %29.83 in6.2 miESE (120°)9.2 mphMostly Cloudy
2:00 AM82.0 °F71.0 °F62 %29.81 in6.0 miESE (110°)8.9 mphHaze
2:00 AM82.4 °F71.6 °F70 %29.80 in6.2 miESE (110°)8.1 mphPartly Cloudy
3:00 AM80.6 °F71.6 °F74 %29.80 in6.2 miESE (110°)8.1 mphPartly Cloudy
4:00 AM80.6 °F71.6 °F74 %29.80 in6.2 miSE (130°)5.8 mphPartly Cloudy
5:00 AM81.0 °F73.0 °F70 %29.80 in6.0 miESE (110°)8.9 mphHaze
5:00 AM80.6 °F73.4 °F79 %29.80 in6.2 miESE (110°)8.1 mphPartly Cloudy
6:00 AM80.6 °F73.4 °F79 %29.83 in6.2 miESE (120°)8.1 mphPartly Cloudy
7:00 AM82.4 °F73.4 °F74 %29.83 in6.2 miEast (100°)8.1 mphPartly Cloudy
8:00 AM84.0 °F73.0 °F62 %29.86 in6.0 miESE (110°)8.9 mphHaze
8:00 AM84.2 °F73.4 °F70 %29.86 in6.2 miESE (110°)10.4 mphPartly Cloudy
9:00 AM86.0 °F73.4 °F66 %29.86 in6.2 miESE (110°)10.4 mphPartly Cloudy
10:00 AM87.8 °F73.4 °F62 %29.86 in6.2 miESE (110°)10.4 mphPartly Cloudy
11:00 AM89.0 °F73.0 °F51 %29.87 in6.0 miESE (120°)11.2 mphPartly Cloudy
11:00 AM89.6 °F73.4 °F59 %29.86 in6.2 miESE (120°)11.5 mph25.3 mphPartly Cloudy
12:00 PM89.6 °F73.4 °F59 %29.83 in6.2 miESE (120°)12.7 mphPartly Cloudy
1:00 PM89.6 °F71.6 °F55 %29.80 in6.2 miESE (120°)11.5 mphPartly Cloudy
2:00 PM93.0 °F68.0 °F34 %29.79 in6.0 miESE (120°)11.2 mphScattered Clouds
2:00 PM93.2 °F71.6 °F49 %29.77 in6.2 miESE (120°)12.7 mphPartly Cloudy
3:00 PM91.4 °F66.2 °F43 %29.77 in6.2 miESE (110°)10.4 mphPartly Cloudy
4:00 PM91.4 °F68.0 °F46 %29.77 in6.2 miESE (110°)11.5 mphScattered Clouds
5:00 PM90.0 °F69.0 °F41 %29.77 in6.0 miESE (120°)8.9 mphScattered Clouds
5:00 PM87.8 °F69.8 °F55 %29.77 in6.2 miESE (120°)10.4 mphScattered Clouds
6:00 PM87.8 °F68.0 °F52 %29.77 in6.2 miESE (110°)9.2 mphMostly Cloudy
7:00 PM86.0 °F69.8 °F58 %29.80 in6.2 miESE (120°)8.1 mphMostly Cloudy
8:00 PM85.0 °F72.0 °F57 %29.84 in6.0 miESE (110°)8.9 mphScattered Clouds
8:00 PM84.2 °F71.6 °F66 %29.83 in6.2 miESE (110°)9.2 mphPartly Cloudy
9:00 PM84.2 °F71.6 °F66 %29.83 in6.2 miEast (100°)5.8 mphPartly Cloudy
10:00 PM82.4 °F69.8 °F66 %29.86 in6.2 miESE (110°)4.6 mphPartly Cloudy
11:00 PM82.0 °F70.0 °F59 %29.87 in6.0 miESE (120°)6.7 mphScattered Clouds
11:00 PM82.4 °F69.8 °F66 %29.86 in6.2 miESE (120°)5.8 mphPartly Cloudy
Hourly data recorded from RPLL, located miles away from Bagumbayan, Philippines







STORIES FROM OUR PARTNERS